TimeCST,TemperatureF,Dew PointF,Humidity,Sea Level PressureIn,VisibilityMPH,Wind Direction,Wind SpeedMPH,Gust SpeedMPH,PrecipitationIn,Events,Conditions,WindDirDegrees,DateUTC
12:15 AM,32.0,32.0,100,29.87,0.5,West,6.9,-,N/A,Fog,Fog,270,2012-12-17 06:15:00
12:55 AM,32.0,32.0,100,29.87,1.0,WSW,6.9,-,N/A,,Overcast,250,2012-12-17 06:55:00
1:15 AM,32.0,32.0,100,29.85,0.5,WSW,4.6,-,N/A,Fog,Fog,240,2012-12-17 07:15:00
1:35 AM,32.0,32.0,100,29.86,0.2,Calm,Calm,-,N/A,Fog,Light Freezing Fog,0,2012-12-17 07:35:00
1:55 AM,32.0,32.0,100,29.86,0.2,WSW,3.5,-,N/A,Fog,Light Freezing Fog,240,2012-12-17 07:55:00
2:15 AM,32.0,32.0,100,29.86,0.2,West,3.5,-,N/A,Fog,Light Freezing Fog,260,2012-12-17 08:15:00
2:35 AM,32.0,32.0,100,29.87,0.2,WSW,4.6,-,N/A,Fog,Light Freezing Fog,250,2012-12-17 08:35:00
2:55 AM,30.2,30.2,100,29.87,0.2,WSW,3.5,-,N/A,Fog,Light Freezing Fog,240,2012-12-17 08:55:00
3:15 AM,30.2,30.2,100,29.87,0.2,Calm,Calm,-,N/A,Fog,Light Freezing Fog,0,2012-12-17 09:15:00
3:35 AM,30.2,30.2,100,29.88,0.2,SW,8.1,-,N/A,Fog,Light Freezing Fog,220,2012-12-17 09:35:00
3:55 AM,28.4,28.4,100,29.87,0.5,SW,6.9,-,N/A,Fog,Light Freezing Fog,220,2012-12-17 09:55:00
4:15 AM,28.4,28.4,100,29.87,5.0,SW,5.8,-,N/A,,Scattered Clouds,220,2012-12-17 10:15:00
4:35 AM,28.4,28.4,100,29.87,5.0,SW,6.9,-,N/A,,Clear,220,2012-12-17 10:35:00
4:55 AM,28.4,28.4,100,29.86,7.0,SW,6.9,-,N/A,,Clear,230,2012-12-17 10:55:00
5:15 AM,28.4,28.4,100,29.85,7.0,SW,6.9,-,N/A,,Clear,220,2012-12-17 11:15:00
5:35 AM,26.6,26.6,100,29.85,7.0,SW,8.1,-,N/A,,Clear,230,2012-12-17 11:35:00
5:55 AM,28.4,28.4,100,29.86,7.0,SW,8.1,-,N/A,,Clear,230,2012-12-17 11:55:00
6:15 AM,28.4,28.4,100,29.87,5.0,SW,9.2,-,N/A,,Clear,230,2012-12-17 12:15:00
6:35 AM,28.4,28.4,100,29.87,7.0,WSW,12.7,-,N/A,,Clear,240,2012-12-17 12:35:00
6:55 AM,28.4,28.4,100,29.87,7.0,SW,9.2,-,N/A,,Clear,230,2012-12-17 12:55:00
7:15 AM,28.4,28.4,100,29.88,7.0,WSW,8.1,-,N/A,,Clear,240,2012-12-17 13:15:00
7:55 AM,28.4,28.4,100,29.87,5.0,WSW,10.4,-,N/A,,Clear,240,2012-12-17 13:55:00
8:15 AM,28.4,28.4,100,29.87,7.0,WSW,5.8,-,N/A,,Clear,250,2012-12-17 14:15:00
8:35 AM,28.4,28.4,100,29.87,7.0,West,4.6,-,N/A,,Clear,260,2012-12-17 14:35:00
8:55 AM,30.2,28.4,93,29.87,7.0,WSW,5.8,-,N/A,,Clear,240,2012-12-17 14:55:00
9:15 AM,30.2,28.4,93,29.87,10.0,SW,9.2,-,N/A,,Clear,230,2012-12-17 15:15:00
9:35 AM,32.0,30.2,93,29.87,10.0,SW,8.1,-,N/A,,Clear,230,2012-12-17 15:35:00
9:55 AM,32.0,30.2,93,29.88,10.0,SW,6.9,-,N/A,,Clear,230,2012-12-17 15:55:00
10:15 AM,33.8,32.0,93,29.87,10.0,SW,9.2,-,N/A,,Clear,230,2012-12-17 16:15:00
10:35 AM,35.6,32.0,87,29.87,10.0,West,8.1,-,N/A,,Clear,260,2012-12-17 16:35:00
10:55 AM,37.4,32.0,81,29.87,10.0,SW,5.8,-,N/A,,Clear,230,2012-12-17 16:55:00
11:15 AM,39.2,32.0,75,29.86,10.0,WSW,8.1,-,N/A,,Clear,240,2012-12-17 17:15:00
11:35 AM,41.0,32.0,70,29.85,10.0,SW,8.1,-,N/A,,Clear,230,2012-12-17 17:35:00
11:55 AM,42.8,32.0,66,29.84,10.0,SW,6.9,-,N/A,,Clear,220,2012-12-17 17:55:00
12:15 PM,44.6,32.0,61,29.82,10.0,SW,8.1,-,N/A,,Clear,220,2012-12-17 18:15:00
12:35 PM,44.6,32.0,61,29.82,10.0,SW,8.1,-,N/A,,Clear,230,2012-12-17 18:35:00
12:55 PM,44.6,30.2,57,29.81,10.0,West,5.8,-,N/A,,Clear,260,2012-12-17 18:55:00
1:15 PM,46.4,28.4,50,29.80,10.0,WSW,8.1,-,N/A,,Clear,240,2012-12-17 19:15:00
1:35 PM,46.4,28.4,50,29.78,10.0,WSW,10.4,-,N/A,,Clear,240,2012-12-17 19:35:00
1:55 PM,50.0,28.4,43,29.77,10.0,SW,10.4,-,N/A,,Clear,230,2012-12-17 19:55:00
2:15 PM,51.8,26.6,38,29.76,10.0,SW,11.5,-,N/A,,Clear,230,2012-12-17 20:15:00
2:35 PM,53.6,23.0,30,29.75,10.0,SW,10.4,-,N/A,,Clear,230,2012-12-17 20:35:00
2:55 PM,53.6,23.0,30,29.75,10.0,SW,12.7,-,N/A,,Clear,230,2012-12-17 20:55:00
3:15 PM,55.4,19.4,25,29.74,10.0,SW,10.4,-,N/A,,Clear,230,2012-12-17 21:15:00
3:35 PM,55.4,17.6,23,29.74,10.0,WSW,9.2,-,N/A,,Clear,250,2012-12-17 21:35:00
3:55 PM,55.4,17.6,23,29.74,10.0,SW,12.7,-,N/A,,Clear,230,2012-12-17 21:55:00
6:35 PM,42.8,21.2,42,29.72,10.0,SSW,9.2,-,N/A,,Clear,200,2012-12-18 00:35:00
6:55 PM,42.8,21.2,42,29.72,10.0,SSW,5.8,-,N/A,,Clear,210,2012-12-18 00:55:00
7:15 PM,41.0,21.2,45,29.71,10.0,SW,6.9,-,N/A,,Clear,220,2012-12-18 01:15:00
7:35 PM,37.4,21.2,52,29.72,10.0,WSW,5.8,-,N/A,,Clear,250,2012-12-18 01:35:00
7:55 PM,37.4,23.0,56,29.72,10.0,SW,11.5,-,N/A,,Clear,220,2012-12-18 01:55:00
8:15 PM,41.0,23.0,49,29.72,10.0,SW,11.5,-,N/A,,Clear,220,2012-12-18 02:15:00
8:35 PM,42.8,23.0,46,29.71,10.0,SSW,12.7,-,N/A,,Clear,210,2012-12-18 02:35:00
8:55 PM,44.6,23.0,43,29.71,10.0,SSW,11.5,-,N/A,,Clear,210,2012-12-18 02:55:00
9:15 PM,44.6,23.0,43,29.71,10.0,SSW,10.4,-,N/A,,Clear,200,2012-12-18 03:15:00
9:35 PM,42.8,23.0,46,29.71,10.0,SSW,15.0,-,N/A,,Clear,210,2012-12-18 03:35:00
9:55 PM,42.8,23.0,46,29.70,10.0,SSW,9.2,-,N/A,,Clear,210,2012-12-18 03:55:00
10:15 PM,39.2,23.0,52,29.71,10.0,SW,8.1,-,N/A,,Clear,220,2012-12-18 04:15:00
10:35 PM,37.4,23.0,56,29.71,10.0,WSW,9.2,-,N/A,,Clear,240,2012-12-18 04:35:00
10:55 PM,41.0,23.0,49,29.71,10.0,SW,12.7,-,N/A,,Clear,230,2012-12-18 04:55:00
11:15 PM,41.0,24.8,53,29.71,10.0,WSW,12.7,-,N/A,,Clear,240,2012-12-18 05:15:00
11:35 PM,42.8,24.8,49,29.72,10.0,WSW,9.2,-,N/A,,Clear,240,2012-12-18 05:35:00
11:55 PM,41.0,26.6,57,29.72,10.0,WSW,12.7,-,N/A,,Clear,240,2012-12-18 05:55:00